Regional Weather Roundup
Issued by NWS Little Rock, AR

Home | Current Version | Previous Version | Graphics & Text | Print | Product List | Glossary On
Versions: 1 2 3 4 5 6 7 8 9 10 11 12 13 14 15 16 17 18 19 20 21 22 23 24 25 26 27 28 29 30 31 32
000
ASUS44 KLZK 250405
RWRLZK

WEATHER ROUNDUP FOR ARKANSAS
NATIONAL WEATHER SERVICE LITTLE ROCK AR
1100 PM CDT WED MAY 24 2017

NOTE: "FAIR" INDICATES FEW OR NO CLOUDS BELOW 12,000 FEET WITH NO
SIGNIFICANT WEATHER AND/OR OBSTRUCTIONS TO VISIBILITY.

ARZ001-003-010-029-250500-
NORTHWEST ARKANSAS

CITY           SKY/WX    TMP DP  RH WIND       PRES   REMARKS
FAYETTEVILLE   CLEAR     49  49 100 S5        29.73R
FORT SMITH     CLEAR     58  48  69 SW5       29.72R
HARRISON       CLEAR     50  50 100 N3        29.72R
BENTONVILLE    CLEAR     54  46  76 CALM      29.73R
ROGERS         CLEAR     54  48  80 CALM      29.73R
SILOAM SPGS    CLEAR     52  45  76 CALM      29.72S
HIGHFILL       CLEAR     53  48  83 CALM      29.73R
$$

ARZ004-005-016-250500-
NORTH CENTRAL ARKANSAS

CITY           SKY/WX    TMP DP  RH WIND       PRES   REMARKS
BATESVILLE     CLEAR     54  48  82 W3        29.70R
FLIPPIN        CLEAR     54  45  71 W3        29.68S
MTN HOME       CLEAR     52  50  93 CALM      29.69R
$$

ARZ040-041-250500-
WEST CENTRAL ARKANSAS

CITY           SKY/WX    TMP DP  RH WIND       PRES   REMARKS
MENA           CLEAR     52  52 100 CALM      29.75R
MOUNT IDA      CLEAR     52  49  89 CALM      29.71R
$$

ARZ009-017-025-026-028-250500-
NORTHEAST ARKANSAS

CITY           SKY/WX    TMP DP  RH WIND       PRES   REMARKS
JONESBORO      CLEAR     57  50  77 W7        29.67R
WALNUT RIDGE   CLEAR     55  46  71 W8        29.67R
BLYTHEVILLE    CLEAR     56  53  90 W7        29.64R
$$

ARZ022-023-033-042-044-250500-
CENTRAL ARKANSAS

CITY           SKY/WX    TMP DP  RH WIND       PRES   REMARKS
LITTLE ROCK    CLEAR     57  53  86 W5        29.72R
N LITTLE ROCK    N/A     55  51  87 CALM      29.72R
JACKSONVILLE   CLEAR     56  53  90 W6        29.70R
CONWAY           N/A     57  54  88 CALM      29.70R
SEARCY         CLEAR     55  51  86 CALM      29.71R
HOT SPRINGS    CLEAR     58  50  75 CALM      29.73R
RUSSELLVILLE   CLEAR     53  51  93 CALM      29.72R
CLINTON        FAIR      52  50  93 CALM      29.72R
$$

ARZ036-250500-
EAST ARKANSAS

CITY           SKY/WX    TMP DP  RH WIND       PRES   REMARKS
WEST MEMPHIS   PTCLDY    56  53  90 VRB3      29.66R
$$

ARZ050-053-066-070-073-250500-
SOUTHWEST ARKANSAS

CITY           SKY/WX    TMP DP  RH WIND       PRES   REMARKS
ARKADELPHIA    FAIR      57  52  83 CALM      29.74R
CAMDEN         CLEAR     54  50  87 CALM      29.74R
TEXARKANA      CLEAR     56  52  86 SW3       29.75R
EL DORADO      CLEAR     54  52  93 CALM      29.75R
DE QUEEN       CLEAR     52  51  97 CALM      29.72S
$$

ARZ056-057-069-250500-
SOUTHEAST ARKANSAS

CITY           SKY/WX    TMP DP  RH WIND       PRES   REMARKS
PINE BLUFF     CLOUDY    60  51  72 NW6       29.72R
STUTTGART      CLEAR     57  45  62 W6        29.71R
MONTICELLO     CLEAR     56  51  84 W3        29.72R

$$






USA.gov is the U.S. government's official web portal to all federal, state and local government web resources and services.